SDM5965 UWGG-HESH

Flight info

Callsign SDM5965
Flight time 4h 54m
Altitude 34000
Route N0460F340 OKSUD T778 TERDI/K0830F340 P165 DAFOS P135 UROBO R807 MOLED N50 LIDUS DCT ZG DCT ITAKA DCT PINMU A955 LURIS N37 SARPI UG67 TBN UM11 ARSUG UT284 SIV UA285 MUT UR55 KONAK DCT AYT/N0447F350 UA16 TOMBI M855 RASDA A16 CVO L677 MENLI N697 SISIK V603 ALSOB
Aircraft B738/M-V/N

Departure

Time 2026-05-08 18:33
Airport Nizhny Novgorod / Strigino International Airport (UWGG)

Arrival

Time 2026-05-08 23:27
Airport Sharm El Sheikh International Airport (HESH)
Time Latitude Longitude Altitude Speed Heading
2026-05-08 18:12 56.22178 43.78822 265 ft 0 kts 147°
2026-05-08 18:26 56.22176 43.78824 238 ft 4 kts 147°
2026-05-08 18:27 56.22135 43.78864 265 ft 7 kts 165°
2026-05-08 18:27 56.22102 43.78862 265 ft 7 kts 193°
2026-05-08 18:27 56.22060 43.78780 265 ft 7 kts 234°
2026-05-08 18:27 56.22027 43.78741 265 ft 0 kts 198°
2026-05-08 18:28 56.22024 43.78740 265 ft 3 kts 197°
2026-05-08 18:29 56.21982 43.78721 265 ft 10 kts 193°
2026-05-08 18:29 56.21897 43.78676 265 ft 16 kts 222°
2026-05-08 18:29 56.21789 43.78565 265 ft 21 kts 195°
2026-05-08 18:29 56.21645 43.78513 265 ft 18 kts 191°
2026-05-08 18:30 56.21527 43.78471 265 ft 17 kts 193°
2026-05-08 18:30 56.21488 43.78330 265 ft 5 kts 270°
2026-05-08 18:30 56.21494 43.78265 266 ft 5 kts 280°
2026-05-08 18:30 56.21500 43.78200 266 ft 5 kts 280°
2026-05-08 18:31 56.21507 43.78137 266 ft 5 kts 280°
2026-05-08 18:31 56.21519 43.78077 267 ft 5 kts 317°
2026-05-08 18:31 56.21553 43.78062 267 ft 5 kts 359°
2026-05-08 18:31 56.21572 43.78066 267 ft 0 kts
2026-05-08 18:32 56.21589 43.78070 268 ft 8 kts
2026-05-08 18:32 56.21852 43.78141 266 ft 75 kts 10°
2026-05-08 18:32 56.22595 43.78426 264 ft 141 kts 11°
2026-05-08 18:32 56.23696 43.78826 572 ft 171 kts 11°
2026-05-08 18:33 56.24845 43.79273 1551 ft 163 kts 10°
2026-05-08 18:33 56.25918 43.79747 2473 ft 167 kts 11°
2026-05-08 18:33 56.27132 43.80279 2750 ft 190 kts 11°
2026-05-08 18:33 56.28484 43.80868 3001 ft 207 kts 11°
2026-05-08 18:34 56.29914 43.81490 3512 ft 214 kts 11°
2026-05-08 18:34 56.31370 43.82121 4131 ft 216 kts 11°
2026-05-08 18:34 56.32838 43.82754 4757 ft 219 kts 11°
2026-05-08 18:34 56.34370 43.83450 5103 ft 239 kts 18°
2026-05-08 18:35 56.35750 43.85279 5576 ft 260 kts 48°
2026-05-08 18:35 56.36574 43.88294 6119 ft 280 kts 73°
2026-05-08 18:35 56.36635 43.91878 6657 ft 296 kts 100°
2026-05-08 18:35 56.35804 43.95289 7326 ft 300 kts 128°
2026-05-08 18:36 56.34373 43.98024 8020 ft 301 kts 141°
2026-05-08 18:36 56.32744 44.00434 8674 ft 305 kts 146°
2026-05-08 18:36 56.31043 44.02751 9373 ft 307 kts 150°
2026-05-08 18:36 56.29221 44.04748 10075 ft 307 kts 158°
2026-05-08 18:37 56.27257 44.06303 10516 ft 315 kts 165°
2026-05-08 18:37 56.25125 44.07678 10672 ft 335 kts 166°
2026-05-08 18:37 56.22854 44.09055 10825 ft 355 kts 166°
2026-05-08 18:37 56.20444 44.10514 10974 ft 374 kts 166°
2026-05-08 18:38 56.17952 44.12046 11109 ft 392 kts 166°
2026-05-08 18:38 56.15300 44.13705 11448 ft 403 kts 165°
2026-05-08 18:38 56.12680 44.15372 11993 ft 406 kts 165°
2026-05-08 18:38 56.10014 44.17084 12625 ft 408 kts 165°
2026-05-08 18:39 56.07336 44.18810 13193 ft 411 kts 165°
2026-05-08 18:39 56.04632 44.20551 13731 ft 415 kts 165°
2026-05-08 18:39 56.01904 44.22306 14228 ft 418 kts 165°
2026-05-08 18:39 55.99162 44.24067 14725 ft 421 kts 165°
2026-05-08 18:40 55.96390 44.25844 15231 ft 424 kts 165°
2026-05-08 18:40 55.93598 44.27631 15712 ft 427 kts 165°
2026-05-08 18:40 55.90784 44.29427 16212 ft 429 kts 165°
2026-05-08 18:40 55.87963 44.31226 16686 ft 432 kts 165°
2026-05-08 18:41 55.85115 44.33038 17139 ft 436 kts 165°
2026-05-08 18:41 55.82247 44.34859 17589 ft 439 kts 165°
2026-05-08 18:41 55.79363 44.36689 18052 ft 441 kts 165°
2026-05-08 18:41 55.76460 44.38527 18485 ft 444 kts 165°
2026-05-08 18:42 55.73543 44.40372 18883 ft 446 kts 165°
2026-05-08 18:42 55.70650 44.42199 19298 ft 448 kts 165°
2026-05-08 18:42 55.67706 44.44055 19717 ft 450 kts 165°
2026-05-08 18:42 55.64751 44.45915 20119 ft 452 kts 165°
2026-05-08 18:43 55.61782 44.47780 20499 ft 454 kts 164°
2026-05-08 18:43 55.58797 44.49652 20887 ft 456 kts 164°
2026-05-08 18:43 55.55799 44.51529 21253 ft 458 kts 164°
2026-05-08 18:43 55.52790 44.53410 21612 ft 460 kts 164°
2026-05-08 18:44 55.49766 44.55297 21972 ft 462 kts 164°
2026-05-08 18:44 55.46734 44.57186 22339 ft 463 kts 164°
2026-05-08 18:44 55.43688 44.59081 22695 ft 465 kts 164°
2026-05-08 18:44 55.40633 44.60978 23027 ft 467 kts 164°
2026-05-08 18:45 55.37560 44.62884 23352 ft 469 kts 164°
2026-05-08 18:45 55.34480 44.64790 23664 ft 471 kts 163°
2026-05-08 18:45 55.31382 44.66705 23926 ft 472 kts 163°
2026-05-08 18:45 55.28314 44.68597 24186 ft 474 kts 163°
2026-05-08 18:46 55.25159 44.70541 24455 ft 475 kts 163°
2026-05-08 18:46 55.22037 44.72460 24709 ft 477 kts 163°
2026-05-08 18:46 55.18942 44.74360 24959 ft 478 kts 163°
2026-05-08 18:46 55.15796 44.76288 25213 ft 479 kts 163°
2026-05-08 18:47 55.12643 44.78217 25467 ft 481 kts 163°
2026-05-08 18:47 55.09480 44.80149 25702 ft 482 kts 163°
2026-05-08 18:47 55.06313 44.82080 25951 ft 483 kts 163°
2026-05-08 18:47 55.03141 44.84011 26286 ft 482 kts 163°
2026-05-08 18:48 54.99977 44.85935 26653 ft 480 kts 163°
2026-05-08 18:48 54.96832 44.87845 27033 ft 478 kts 163°
2026-05-08 18:48 54.93696 44.89745 27382 ft 477 kts 163°
2026-05-08 18:48 54.90566 44.91637 27703 ft 476 kts 163°
2026-05-08 18:49 54.87438 44.93526 28046 ft 475 kts 163°
2026-05-08 18:49 54.84317 44.95406 28396 ft 474 kts 163°
2026-05-08 18:49 54.81208 44.97277 28745 ft 472 kts 163°
2026-05-08 18:49 54.78106 44.99140 29085 ft 471 kts 163°
2026-05-08 18:50 54.75012 45.00995 29427 ft 470 kts 163°
2026-05-08 18:50 54.71922 45.02846 29743 ft 470 kts 163°
2026-05-08 18:50 54.68871 45.04669 30066 ft 469 kts 163°
2026-05-08 18:50 54.65791 45.06507 30371 ft 467 kts 163°
2026-05-08 18:51 54.62723 45.08335 30631 ft 467 kts 163°
2026-05-08 18:51 54.59647 45.10165 30860 ft 467 kts 163°
2026-05-08 18:51 54.56583 45.11985 31116 ft 466 kts 163°
2026-05-08 18:51 54.53515 45.13804 31385 ft 465 kts 163°
2026-05-08 18:52 54.50455 45.15616 31630 ft 464 kts 163°
2026-05-08 18:52 54.47399 45.17422 31855 ft 464 kts 163°
2026-05-08 18:52 54.44338 45.19229 32079 ft 464 kts 163°
2026-05-08 18:52 54.41288 45.21025 32312 ft 464 kts 163°
2026-05-08 18:53 54.38241 45.22818 32552 ft 463 kts 163°
2026-05-08 18:53 54.35196 45.24607 32771 ft 462 kts 163°
2026-05-08 18:53 54.32150 45.26393 32992 ft 462 kts 163°
2026-05-08 18:53 54.29113 45.28172 33214 ft 462 kts 163°
2026-05-08 18:54 54.26073 45.29949 33423 ft 461 kts 163°
2026-05-08 18:54 54.23040 45.31720 33646 ft 461 kts 163°
2026-05-08 18:54 54.20047 45.33464 33878 ft 460 kts 163°
2026-05-08 18:54 54.16982 45.35248 34090 ft 459 kts 163°
2026-05-08 18:55 54.10972 45.38738 34395 ft 459 kts 163°
2026-05-08 18:55 54.07944 45.40491 34544 ft 459 kts 163°
2026-05-08 18:55 54.04920 45.42240 34707 ft 459 kts 163°
2026-05-08 18:56 54.01895 45.43987 34866 ft 459 kts 163°
2026-05-08 18:56 53.98865 45.45734 34981 ft 460 kts 163°
2026-05-08 18:56 53.95822 45.47485 34993 ft 463 kts 163°
2026-05-08 18:57 53.89732 45.50983 34993 ft 461 kts 163°
2026-05-08 18:57 53.83679 45.54450 34994 ft 457 kts 163°
2026-05-08 18:58 53.77668 45.57883 34999 ft 455 kts 163°
2026-05-08 18:58 53.71676 45.61293 34999 ft 454 kts 163°
2026-05-08 18:59 53.65689 45.64689 35000 ft 454 kts 163°
2026-05-08 18:59 53.59691 45.68082 35002 ft 456 kts 162°
2026-05-08 19:00 53.54685 45.70906 35001 ft 457 kts 162°
2026-05-08 19:00 53.47646 45.74865 34998 ft 460 kts 162°
2026-05-08 19:01 53.41565 45.78275 34991 ft 462 kts 162°
2026-05-08 19:01 53.35454 45.81691 34989 ft 464 kts 162°
2026-05-08 19:02 53.29323 45.85108 34989 ft 464 kts 162°
2026-05-08 19:02 53.23229 45.88495 34983 ft 459 kts 162°
2026-05-08 19:03 53.17164 45.91854 34994 ft 460 kts 162°
2026-05-08 19:03 53.11065 45.95222 34990 ft 463 kts 162°
2026-05-08 19:04 53.04939 45.98595 34986 ft 464 kts 162°
2026-05-08 19:04 52.98843 46.01942 34983 ft 465 kts 162°
2026-05-08 19:05 52.92688 46.05311 34987 ft 465 kts 162°
2026-05-08 19:05 52.86545 46.08664 34987 ft 465 kts 162°
2026-05-08 19:06 52.80406 46.12004 34972 ft 463 kts 162°
2026-05-08 19:06 52.74317 46.15308 34978 ft 459 kts 162°
2026-05-08 19:07 52.68242 46.18594 34978 ft 458 kts 162°
2026-05-08 19:07 52.62184 46.21861 34974 ft 458 kts 162°
2026-05-08 19:08 52.56138 46.25114 34977 ft 457 kts 162°
2026-05-08 19:08 52.50117 46.28336 34968 ft 458 kts 164°
2026-05-08 19:09 52.43847 46.29749 34968 ft 456 kts 182°
2026-05-08 19:09 52.37588 46.28315 34972 ft 455 kts 192°
2026-05-08 19:10 52.31354 46.26333 34963 ft 457 kts 192°
2026-05-08 19:10 52.25096 46.24454 34965 ft 458 kts 191°
2026-05-08 19:11 52.18802 46.22617 34961 ft 460 kts 191°
2026-05-08 19:11 52.12491 46.20787 34960 ft 461 kts 191°
2026-05-08 19:12 52.06178 46.18964 34957 ft 461 kts 191°
2026-05-08 19:12 52.00919 46.17448 34949 ft 462 kts 191°
2026-05-08 19:13 51.94599 46.15618 34948 ft 462 kts 191°
2026-05-08 19:13 51.88274 46.13784 34945 ft 461 kts 191°
2026-05-08 19:14 51.81963 46.11960 34939 ft 461 kts 191°
2026-05-08 19:14 51.75659 46.10145 34940 ft 460 kts 191°
2026-05-08 19:15 51.69367 46.08338 34941 ft 459 kts 191°
2026-05-08 19:15 51.63075 46.06535 34942 ft 459 kts 191°
2026-05-08 19:16 51.56815 46.04614 34937 ft 458 kts 196°
2026-05-08 19:16 51.50948 46.00723 34961 ft 457 kts 207°
2026-05-08 19:17 51.45212 45.96220 34954 ft 459 kts 207°
2026-05-08 19:17 51.39455 45.91770 34955 ft 459 kts 206°
2026-05-08 19:18 51.33695 45.87391 34964 ft 459 kts 206°
2026-05-08 19:18 51.27960 45.83060 34963 ft 458 kts 206°
2026-05-08 19:19 51.22178 45.78703 35112 ft 460 kts 206°
2026-05-08 19:19 51.19315 45.76549 35314 ft 459 kts 206°
2026-05-08 19:19 51.17701 45.75336 35411 ft 458 kts 206°
2026-05-08 19:20 51.15568 45.73734 35545 ft 458 kts 206°
2026-05-08 19:20 51.13738 45.72361 35643 ft 458 kts 206°
2026-05-08 19:21 51.09612 45.69268 35806 ft 458 kts 206°
2026-05-08 19:21 51.07299 45.67537 35914 ft 458 kts 206°
2026-05-08 19:22 51.06629 45.67037 35951 ft 458 kts 206°
2026-05-08 19:22 51.02459 45.64145 35966 ft 461 kts 199°
2026-05-08 19:23 50.96391 45.61837 35976 ft 460 kts 192°
2026-05-08 19:23 50.94534 45.61220 35977 ft 460 kts 192°
2026-05-08 19:24 50.90836 45.59974 35982 ft 459 kts 193°
2026-05-08 19:24 50.87955 45.58973 35982 ft 459 kts 193°
2026-05-08 19:25 50.83307 45.57320 35989 ft 459 kts 193°
2026-05-08 19:25 50.77062 45.55092 35985 ft 461 kts 193°
2026-05-08 19:26 50.70863 45.52924 35983 ft 461 kts 193°
2026-05-08 19:26 50.64606 45.50753 35985 ft 460 kts 193°
2026-05-08 19:27 50.58353 45.48585 35990 ft 460 kts 193°
2026-05-08 19:27 50.52137 45.46432 35986 ft 461 kts 193°
2026-05-08 19:28 50.45868 45.44265 35989 ft 461 kts 193°
2026-05-08 19:28 50.39611 45.42109 35980 ft 461 kts 193°
2026-05-08 19:29 50.33341 45.39954 35985 ft 461 kts 193°
2026-05-08 19:29 50.27071 45.37805 35988 ft 461 kts 193°
2026-05-08 19:30 50.20995 45.35729 35980 ft 461 kts 193°
2026-05-08 19:30 50.14738 45.33595 35988 ft 460 kts 193°
2026-05-08 19:31 50.08485 45.31468 35990 ft 460 kts 193°
2026-05-08 19:31 50.02240 45.29349 35983 ft 459 kts 193°
2026-05-08 19:32 49.96108 45.26834 35992 ft 459 kts 197°
2026-05-08 19:32 49.89982 45.24034 35991 ft 459 kts 197°
2026-05-08 19:33 49.83820 45.21268 35999 ft 463 kts 197°
2026-05-08 19:33 49.77601 45.18535 35991 ft 465 kts 196°
2026-05-08 19:34 49.71378 45.15814 35985 ft 464 kts 196°
2026-05-08 19:34 49.65177 45.13108 35988 ft 463 kts 196°
2026-05-08 19:35 49.58977 45.10426 35991 ft 462 kts 196°
2026-05-08 19:35 49.52790 45.07759 35989 ft 462 kts 196°
2026-05-08 19:36 49.46605 45.05098 35997 ft 462 kts 196°
2026-05-08 19:36 49.40398 45.02432 36000 ft 464 kts 196°
2026-05-08 19:37 49.34178 44.99768 36002 ft 464 kts 196°
2026-05-08 19:37 49.27945 44.97106 36003 ft 465 kts 196°
2026-05-08 19:38 49.21711 44.94449 36002 ft 465 kts 196°
2026-05-08 19:38 49.15528 44.91822 36003 ft 465 kts 196°
2026-05-08 19:39 49.09292 44.89179 36003 ft 464 kts 196°
2026-05-08 19:39 49.03069 44.86547 36005 ft 464 kts 196°
2026-05-08 19:40 48.96846 44.83923 36009 ft 463 kts 196°
2026-05-08 19:40 48.90643 44.81313 36009 ft 462 kts 196°
2026-05-08 19:41 48.84324 44.80231 36023 ft 461 kts 169°
2026-05-08 19:41 48.81259 44.81630 36005 ft 462 kts 154°
2026-05-08 19:41 48.78553 44.84213 36032 ft 461 kts 142°
2026-05-08 19:42 48.73525 44.90283 36015 ft 462 kts 141°
2026-05-08 19:42 48.68504 44.96382 36006 ft 464 kts 141°
2026-05-08 19:43 48.63424 45.02416 36010 ft 465 kts 142°
2026-05-08 19:43 48.58346 45.08383 36005 ft 466 kts 142°
2026-05-08 19:44 48.53227 45.14384 36009 ft 466 kts 142°
2026-05-08 19:44 48.48097 45.20388 36006 ft 467 kts 142°
2026-05-08 19:45 48.42657 45.25619 36003 ft 465 kts 163°
2026-05-08 19:45 48.39487 45.26466 36003 ft 464 kts 180°
2026-05-08 19:45 48.36283 45.26049 36015 ft 462 kts 194°
2026-05-08 19:45 48.33276 45.24405 36012 ft 460 kts 207°
2026-05-08 19:46 48.30436 45.22205 36011 ft 461 kts 208°
2026-05-08 19:46 48.21930 45.15341 36003 ft 464 kts 208°
2026-05-08 19:47 48.16216 45.10808 36008 ft 464 kts 208°
2026-05-08 19:47 48.10512 45.06354 36004 ft 462 kts 208°
2026-05-08 19:48 48.04837 45.01951 36012 ft 462 kts 208°
2026-05-08 19:48 47.99134 44.97539 36011 ft 462 kts 208°
2026-05-08 19:49 47.93424 44.93130 36017 ft 462 kts 208°
2026-05-08 19:49 47.87723 44.88738 36020 ft 462 kts 208°
2026-05-08 19:50 47.82006 44.84344 36021 ft 462 kts 208°
2026-05-08 19:50 47.76293 44.79964 36022 ft 463 kts 208°
2026-05-08 19:51 47.70565 44.75583 36023 ft 463 kts 208°
2026-05-08 19:51 47.64829 44.71207 36025 ft 464 kts 208°
2026-05-08 19:52 47.59088 44.66839 36027 ft 464 kts 208°
2026-05-08 19:52 47.53327 44.62466 36032 ft 464 kts 208°
2026-05-08 19:53 47.47570 44.58107 36034 ft 465 kts 207°
2026-05-08 19:53 47.41812 44.53757 36035 ft 465 kts 207°
2026-05-08 19:54 47.36050 44.49416 36040 ft 465 kts 207°
2026-05-08 19:54 47.30278 44.45077 36042 ft 466 kts 207°
2026-05-08 19:55 47.24505 44.40749 36043 ft 466 kts 207°
2026-05-08 19:55 47.18733 44.36432 36041 ft 466 kts 207°
2026-05-08 19:56 47.12951 44.32118 36048 ft 466 kts 207°
2026-05-08 19:56 47.07172 44.27817 36046 ft 466 kts 207°
2026-05-08 19:57 47.01427 44.23552 36049 ft 466 kts 207°
2026-05-08 19:57 46.95642 44.19267 36051 ft 466 kts 207°
2026-05-08 19:58 46.89859 44.14995 36055 ft 465 kts 207°
2026-05-08 19:58 46.84077 44.10733 36056 ft 465 kts 207°
2026-05-08 19:59 46.78293 44.06480 36061 ft 465 kts 207°
2026-05-08 19:59 46.72507 44.02236 36063 ft 465 kts 207°
2026-05-08 20:00 46.66718 43.98000 36067 ft 466 kts 207°
2026-05-08 20:00 46.61903 43.94485 36066 ft 466 kts 207°
2026-05-08 20:01 46.56107 43.90263 36068 ft 466 kts 207°
2026-05-08 20:01 46.50317 43.86054 36071 ft 466 kts 207°
2026-05-08 20:02 46.44501 43.81838 36071 ft 466 kts 207°
2026-05-08 20:02 46.38689 43.77635 36077 ft 466 kts 207°
2026-05-08 20:03 46.32872 43.73438 36082 ft 467 kts 207°
2026-05-08 20:03 46.27059 43.69253 36081 ft 467 kts 207°
2026-05-08 20:04 46.21282 43.65104 36084 ft 467 kts 207°
2026-05-08 20:04 46.15465 43.60937 36083 ft 467 kts 207°
2026-05-08 20:05 46.09650 43.56781 36088 ft 467 kts 207°
2026-05-08 20:05 46.03834 43.52635 36089 ft 467 kts 207°
2026-05-08 20:06 45.98017 43.48497 36088 ft 467 kts 207°
2026-05-08 20:06 45.92191 43.44362 36091 ft 466 kts 207°
2026-05-08 20:07 45.86375 43.40244 36095 ft 466 kts 207°
2026-05-08 20:07 45.80552 43.36131 36100 ft 466 kts 207°
2026-05-08 20:08 45.74728 43.32027 36106 ft 466 kts 207°
2026-05-08 20:08 45.68931 43.27952 36108 ft 466 kts 207°
2026-05-08 20:09 45.63078 43.23847 36113 ft 466 kts 207°
2026-05-08 20:09 45.57249 43.19768 36115 ft 467 kts 207°
2026-05-08 20:10 45.51418 43.15697 36115 ft 467 kts 207°
2026-05-08 20:10 45.45587 43.11635 36120 ft 467 kts 207°
2026-05-08 20:11 45.39741 43.07573 36129 ft 467 kts 206°
2026-05-08 20:11 45.33941 43.03552 36132 ft 467 kts 206°
2026-05-08 20:12 45.28099 42.99511 36137 ft 467 kts 206°
2026-05-08 20:12 45.22275 42.95492 36141 ft 467 kts 206°
2026-05-08 20:13 45.16403 42.91449 36146 ft 467 kts 206°
2026-05-08 20:13 45.10555 42.87431 36149 ft 467 kts 206°
2026-05-08 20:14 45.04700 42.83419 36150 ft 467 kts 206°
2026-05-08 20:14 44.98845 42.79415 36162 ft 467 kts 206°
2026-05-08 20:15 44.93016 42.75438 36162 ft 468 kts 206°
2026-05-08 20:15 44.87156 42.71449 36165 ft 468 kts 206°
2026-05-08 20:16 44.81284 42.67461 36170 ft 468 kts 206°
2026-05-08 20:16 44.75427 42.63492 36171 ft 468 kts 206°
2026-05-08 20:17 44.69542 42.59513 36178 ft 468 kts 206°
2026-05-08 20:17 44.63660 42.55545 36180 ft 469 kts 206°
2026-05-08 20:18 44.57783 42.51590 36178 ft 469 kts 206°
2026-05-08 20:18 44.51904 42.47642 36186 ft 468 kts 206°
2026-05-08 20:19 44.46019 42.43698 36184 ft 469 kts 206°
2026-05-08 20:19 44.40129 42.39761 36190 ft 469 kts 206°
2026-05-08 20:20 44.34256 42.35844 36197 ft 469 kts 206°
2026-05-08 20:20 44.28383 42.31935 36202 ft 469 kts 206°
2026-05-08 20:21 44.22494 42.28024 36209 ft 469 kts 206°
2026-05-08 20:21 44.16582 42.24107 36215 ft 469 kts 206°
2026-05-08 20:22 44.10686 42.20210 36225 ft 470 kts 206°
2026-05-08 20:22 44.04779 42.16313 36230 ft 470 kts 206°
2026-05-08 20:23 43.98864 42.12420 36232 ft 470 kts 206°
2026-05-08 20:23 43.92944 42.08532 36240 ft 470 kts 206°
2026-05-08 20:24 43.87030 42.04657 36250 ft 471 kts 206°
2026-05-08 20:24 43.81110 42.00786 36245 ft 471 kts 206°
2026-05-08 20:25 43.75226 41.96948 36252 ft 471 kts 206°
2026-05-08 20:25 43.69292 41.93085 36256 ft 471 kts 206°
2026-05-08 20:26 43.63361 41.89233 36258 ft 471 kts 206°
2026-05-08 20:26 43.57417 41.85380 36254 ft 472 kts 206°
2026-05-08 20:27 43.51470 41.81535 36249 ft 472 kts 206°
2026-05-08 20:27 43.45512 41.77691 36241 ft 472 kts 206°
2026-05-08 20:28 43.39567 41.73862 36233 ft 472 kts 206°
2026-05-08 20:28 43.33619 41.70041 36234 ft 472 kts 206°
2026-05-08 20:29 43.27662 41.66222 36226 ft 472 kts 206°
2026-05-08 20:29 43.21742 41.62435 36223 ft 472 kts 206°
2026-05-08 20:30 43.15794 41.58639 36221 ft 472 kts 206°
2026-05-08 20:30 43.09851 41.54854 36209 ft 472 kts 206°
2026-05-08 20:31 43.03889 41.51064 36205 ft 472 kts 206°
2026-05-08 20:31 42.97930 41.47285 36201 ft 473 kts 206°
2026-05-08 20:32 42.91960 41.43507 36203 ft 473 kts 206°
2026-05-08 20:32 42.85977 41.39729 36207 ft 474 kts 206°
2026-05-08 20:33 42.80006 41.35967 36204 ft 474 kts 206°
2026-05-08 20:33 42.74127 41.32270 36203 ft 474 kts 206°
2026-05-08 20:34 42.68159 41.28525 36197 ft 474 kts 206°
2026-05-08 20:35 42.59138 41.22881 36198 ft 474 kts 206°
2026-05-08 20:35 42.53204 41.19177 36196 ft 472 kts 206°
2026-05-08 20:36 42.47194 41.15434 36203 ft 472 kts 206°
2026-05-08 20:36 42.41254 41.11742 36205 ft 473 kts 206°
2026-05-08 20:37 42.35289 41.08043 36205 ft 473 kts 206°
2026-05-08 20:37 42.29283 41.04325 36204 ft 473 kts 206°
2026-05-08 20:38 42.23296 41.00628 36202 ft 473 kts 206°
2026-05-08 20:38 42.17294 40.96929 36205 ft 473 kts 206°
2026-05-08 20:39 42.11348 40.93272 36207 ft 473 kts 206°
2026-05-08 20:39 42.05352 40.89592 36201 ft 473 kts 206°
2026-05-08 20:40 41.99353 40.85918 36201 ft 473 kts 206°
2026-05-08 20:40 41.93363 40.82257 36201 ft 473 kts 206°
2026-05-08 20:41 41.87363 40.78597 36206 ft 473 kts 206°
2026-05-08 20:41 41.81366 40.74947 36207 ft 474 kts 206°
2026-05-08 20:42 41.75354 40.71295 36205 ft 474 kts 206°
2026-05-08 20:42 41.69350 40.67656 36202 ft 474 kts 206°
2026-05-08 20:43 41.63338 40.64019 36195 ft 474 kts 206°
2026-05-08 20:43 41.57324 40.60388 36196 ft 475 kts 206°
2026-05-08 20:44 41.51360 40.56795 36200 ft 475 kts 206°
2026-05-08 20:44 41.45301 40.53152 36203 ft 475 kts 206°
2026-05-08 20:45 41.39262 40.49529 36201 ft 476 kts 206°
2026-05-08 20:45 41.33214 40.45906 36197 ft 476 kts 206°
2026-05-08 20:46 41.27171 40.42294 36195 ft 476 kts 207°
2026-05-08 20:46 41.21348 40.38254 36188 ft 471 kts 222°
2026-05-08 20:46 41.18994 40.35236 36200 ft 465 kts 234°
2026-05-08 20:47 41.17184 40.31728 36195 ft 459 kts 247°
2026-05-08 20:47 41.14698 40.24027 36200 ft 457 kts 250°
2026-05-08 20:48 41.12143 40.16319 36197 ft 458 kts 249°
2026-05-08 20:48 41.09955 40.09946 36198 ft 459 kts 249°
2026-05-08 20:49 41.07295 40.02221 36203 ft 459 kts 249°
2026-05-08 20:49 41.04208 39.93244 36207 ft 459 kts 249°
2026-05-08 20:50 41.02008 39.86859 36214 ft 459 kts 249°
2026-05-08 20:50 41.00155 39.78892 36217 ft 450 kts 266°
2026-05-08 20:51 41.00222 39.70776 36222 ft 443 kts 280°
2026-05-08 20:51 41.01061 39.62674 36211 ft 442 kts 281°
2026-05-08 20:52 41.01885 39.54594 36207 ft 443 kts 281°
2026-05-08 20:52 41.02665 39.46506 36208 ft 443 kts 280°
2026-05-08 20:53 41.03420 39.38422 36201 ft 442 kts 280°
2026-05-08 20:53 41.04170 39.30332 36191 ft 442 kts 280°
2026-05-08 20:54 41.04912 39.22305 36194 ft 442 kts 280°
2026-05-08 20:54 41.05653 39.14232 36188 ft 441 kts 280°
2026-05-08 20:55 41.06399 39.06179 36186 ft 440 kts 280°
2026-05-08 20:55 41.07148 38.98144 36179 ft 439 kts 280°
2026-05-08 20:56 41.07889 38.90118 36186 ft 438 kts 280°
2026-05-08 20:56 41.08621 38.82120 36184 ft 437 kts 280°
2026-05-08 20:57 41.09345 38.74141 36183 ft 437 kts 280°
2026-05-08 20:57 41.10051 38.66122 36182 ft 437 kts 279°
2026-05-08 20:58 41.10708 38.58126 36175 ft 437 kts 279°
2026-05-08 20:58 41.11385 38.50125 36172 ft 437 kts 279°
2026-05-08 20:59 41.12061 38.42125 36175 ft 437 kts 279°
2026-05-08 20:59 41.12712 38.34147 36176 ft 438 kts 276°
2026-05-08 20:59 41.12443 38.30102 36182 ft 446 kts 259°
2026-05-08 21:00 41.11312 38.26242 36173 ft 454 kts 245°
2026-05-08 21:00 41.09470 38.22811 36187 ft 463 kts 229°
2026-05-08 21:00 41.07049 38.19965 36201 ft 467 kts 223°
2026-05-08 21:01 41.01961 38.14603 36182 ft 468 kts 223°
2026-05-08 21:01 40.96960 38.09137 36181 ft 468 kts 224°
2026-05-08 21:02 40.91701 38.03998 36189 ft 472 kts 219°
2026-05-08 21:02 40.86363 37.99011 36183 ft 471 kts 222°
2026-05-08 21:03 40.81267 37.93604 36194 ft 469 kts 223°
2026-05-08 21:03 40.76180 37.88245 36193 ft 468 kts 223°
2026-05-08 21:04 40.71090 37.82992 36197 ft 466 kts 222°
2026-05-08 21:04 40.65995 37.77739 36220 ft 464 kts 223°
2026-05-08 21:05 40.60920 37.72488 36213 ft 464 kts 223°
2026-05-08 21:05 40.55865 37.67261 36226 ft 464 kts 223°
2026-05-08 21:06 40.50785 37.62040 36223 ft 463 kts 223°
2026-05-08 21:06 40.45721 37.56844 36224 ft 464 kts 223°
2026-05-08 21:07 40.40634 37.51630 36207 ft 464 kts 223°
2026-05-08 21:07 40.35556 37.46435 36215 ft 463 kts 223°
2026-05-08 21:08 40.30466 37.41237 36223 ft 464 kts 223°
2026-05-08 21:08 40.25395 37.36068 36214 ft 465 kts 223°
2026-05-08 21:09 40.20282 37.30869 36217 ft 466 kts 223°
2026-05-08 21:09 40.15151 37.25681 36207 ft 466 kts 223°
2026-05-08 21:10 40.10013 37.20500 36209 ft 466 kts 223°
2026-05-08 21:10 40.04874 37.15324 36212 ft 466 kts 223°
2026-05-08 21:11 39.99745 37.10166 36258 ft 466 kts 223°
2026-05-08 21:11 39.94608 37.05010 36268 ft 466 kts 223°
2026-05-08 21:12 39.89509 36.99902 36280 ft 464 kts 223°
2026-05-08 21:12 39.84379 36.94770 36286 ft 463 kts 223°
2026-05-08 21:13 39.79321 36.89704 36289 ft 460 kts 225°
2026-05-08 21:13 39.74839 36.83912 36287 ft 452 kts 233°
2026-05-08 21:14 39.70588 36.77900 36283 ft 452 kts 234°
2026-05-08 21:14 39.66313 36.71933 36260 ft 453 kts 233°
2026-05-08 21:15 39.61969 36.65952 36238 ft 454 kts 233°
2026-05-08 21:15 39.57628 36.59999 36234 ft 454 kts 233°
2026-05-08 21:16 39.53281 36.54042 36205 ft 455 kts 233°
2026-05-08 21:16 39.48915 36.48077 36210 ft 456 kts 233°
2026-05-08 21:17 39.44525 36.42126 36218 ft 457 kts 232°
2026-05-08 21:17 39.40165 36.36229 36206 ft 457 kts 232°
2026-05-08 21:18 39.35765 36.30286 36205 ft 456 kts 232°
2026-05-08 21:18 39.31382 36.24373 36212 ft 455 kts 232°
2026-05-08 21:19 39.27007 36.18482 36215 ft 454 kts 232°
2026-05-08 21:19 39.22639 36.12609 36215 ft 454 kts 232°
2026-05-08 21:20 39.18273 36.06751 36220 ft 453 kts 232°
2026-05-08 21:20 39.13883 36.00912 36225 ft 454 kts 231°
2026-05-08 21:21 39.09334 35.95248 36216 ft 455 kts 229°
2026-05-08 21:21 39.04763 35.89623 36219 ft 454 kts 230°
2026-05-08 21:22 39.00214 35.83976 36214 ft 454 kts 230°
2026-05-08 21:22 38.95687 35.78348 36213 ft 453 kts 230°
2026-05-08 21:23 38.91193 35.72690 36212 ft 452 kts 231°
2026-05-08 21:23 38.86774 35.66961 36212 ft 451 kts 231°
2026-05-08 21:24 38.82361 35.61243 36200 ft 450 kts 231°
2026-05-08 21:24 38.77943 35.55551 36214 ft 450 kts 231°
2026-05-08 21:25 38.73520 35.49873 36212 ft 450 kts 231°
2026-05-08 21:25 38.69104 35.44216 36214 ft 449 kts 231°
2026-05-08 21:26 38.64714 35.38601 36212 ft 449 kts 231°
2026-05-08 21:26 38.60303 35.32969 36209 ft 449 kts 231°
2026-05-08 21:27 38.55873 35.27321 36212 ft 449 kts 230°
2026-05-08 21:27 38.51414 35.21739 36204 ft 450 kts 227°
2026-05-08 21:28 38.46610 35.16569 36206 ft 452 kts 225°
2026-05-08 21:28 38.41758 35.11479 36212 ft 451 kts 225°
2026-05-08 21:29 38.36965 35.06337 36211 ft 449 kts 227°
2026-05-08 21:29 38.32456 35.00985 36215 ft 445 kts 229°
2026-05-08 21:30 38.27967 34.95548 36217 ft 446 kts 229°
2026-05-08 21:30 38.23449 34.90134 36216 ft 446 kts 229°
2026-05-08 21:31 38.18948 34.84705 36219 ft 446 kts 229°
2026-05-08 21:31 38.14438 34.79270 36215 ft 447 kts 229°
2026-05-08 21:32 38.09931 34.73854 36203 ft 447 kts 229°
2026-05-08 21:32 38.05403 34.68424 36177 ft 446 kts 229°
2026-05-08 21:33 38.01026 34.63185 36155 ft 445 kts 229°
2026-05-08 21:33 37.96529 34.57810 36127 ft 444 kts 229°
2026-05-08 21:34 37.92029 34.52439 36103 ft 444 kts 229°
2026-05-08 21:34 37.87528 34.47083 36102 ft 444 kts 229°
2026-05-08 21:35 37.83048 34.41774 36100 ft 444 kts 229°
2026-05-08 21:35 37.78511 34.36405 36108 ft 443 kts 229°
2026-05-08 21:36 37.74016 34.31091 36133 ft 443 kts 229°
2026-05-08 21:36 37.69531 34.25798 36159 ft 442 kts 229°
2026-05-08 21:37 37.65016 34.20478 36183 ft 442 kts 229°
2026-05-08 21:37 37.60565 34.15243 36204 ft 442 kts 229°
2026-05-08 21:38 37.56062 34.09956 36212 ft 442 kts 229°
2026-05-08 21:38 37.51574 34.04695 36212 ft 441 kts 229°
2026-05-08 21:39 37.47902 34.00395 36212 ft 441 kts 229°
2026-05-08 21:39 37.43340 33.95066 36206 ft 441 kts 229°
2026-05-08 21:40 37.38840 33.89822 36215 ft 440 kts 229°
2026-05-08 21:40 37.34410 33.84668 36211 ft 440 kts 229°
2026-05-08 21:41 37.27601 33.76758 36206 ft 440 kts 229°
2026-05-08 21:41 37.23127 33.71572 36211 ft 439 kts 229°
2026-05-08 21:42 37.18631 33.66369 36211 ft 438 kts 229°
2026-05-08 21:42 37.14212 33.61263 36204 ft 436 kts 229°
2026-05-08 21:43 37.09728 33.56091 36201 ft 436 kts 229°
2026-05-08 21:43 37.05282 33.50970 36200 ft 435 kts 229°
2026-05-08 21:44 37.00826 33.45847 36221 ft 435 kts 229°
2026-05-08 21:44 36.96367 33.40727 36192 ft 435 kts 229°
2026-05-08 21:45 36.91914 33.35622 36191 ft 435 kts 229°
2026-05-08 21:45 36.87912 33.30063 36202 ft 423 kts 248°
2026-05-08 21:46 36.86841 33.26691 36198 ft 417 kts 259°
2026-05-08 21:46 36.86392 33.23148 36179 ft 412 kts 272°
2026-05-08 21:46 36.86617 33.16016 36196 ft 412 kts 275°
2026-05-08 21:47 36.86934 33.08857 36185 ft 413 kts 275°
2026-05-08 21:47 36.87198 33.01750 36184 ft 407 kts 274°
2026-05-08 21:48 36.87421 32.94794 36186 ft 406 kts 274°
2026-05-08 21:48 36.87638 32.87656 36217 ft 412 kts 274°
2026-05-08 21:49 36.87849 32.80499 36195 ft 411 kts 274°
2026-05-08 21:49 36.88056 32.73381 36204 ft 409 kts 274°
2026-05-08 21:50 36.88259 32.66295 36213 ft 410 kts 274°
2026-05-08 21:50 36.88462 32.59128 36207 ft 412 kts 274°
2026-05-08 21:51 36.88657 32.51969 36209 ft 413 kts 274°
2026-05-08 21:51 36.88848 32.44849 36206 ft 413 kts 273°
2026-05-08 21:52 36.89036 32.37697 36201 ft 413 kts 273°
2026-05-08 21:52 36.89219 32.30558 36214 ft 410 kts 273°
2026-05-08 21:53 36.89398 32.23437 36208 ft 410 kts 273°
2026-05-08 21:53 36.89572 32.16303 36205 ft 410 kts 273°
2026-05-08 21:54 36.89741 32.09228 36202 ft 413 kts 273°
2026-05-08 21:54 36.89911 32.02008 36171 ft 409 kts 273°
2026-05-08 21:55 36.90072 31.94944 36186 ft 411 kts 273°
2026-05-08 21:56 36.90308 31.84221 36175 ft 411 kts 273°
2026-05-08 21:56 36.90457 31.77114 36173 ft 410 kts 273°
2026-05-08 21:57 36.90604 31.69963 36164 ft 410 kts 273°
2026-05-08 21:57 36.90746 31.62819 36162 ft 411 kts 273°
2026-05-08 21:58 36.90885 31.55687 36154 ft 410 kts 272°
2026-05-08 21:58 36.90881 31.48567 36137 ft 412 kts 263°
2026-05-08 21:58 36.90099 31.45150 36159 ft 417 kts 250°
2026-05-08 21:59 36.88756 31.41880 36138 ft 422 kts 242°
2026-05-08 21:59 36.84861 31.36282 36136 ft 431 kts 231°
2026-05-08 22:00 36.80654 31.31004 36122 ft 431 kts 230°
2026-05-08 22:00 36.76444 31.25676 36114 ft 430 kts 231°
2026-05-08 22:01 36.72275 31.20341 36117 ft 430 kts 231°
2026-05-08 22:01 36.68134 31.15030 36116 ft 429 kts 231°
2026-05-08 22:02 36.63947 31.09666 36116 ft 430 kts 231°
2026-05-08 22:02 36.59704 31.04384 36104 ft 436 kts 224°
2026-05-08 22:02 36.57135 31.02314 36120 ft 446 kts 212°
2026-05-08 22:03 36.54253 31.00844 36115 ft 454 kts 203°
2026-05-08 22:03 36.47984 30.99445 36115 ft 463 kts 193°
2026-05-08 22:04 36.41582 30.98459 36110 ft 464 kts 193°
2026-05-08 22:04 36.35183 30.97433 36100 ft 463 kts 194°
2026-05-08 22:05 36.28828 30.96363 36111 ft 463 kts 194°
2026-05-08 22:05 36.22439 30.95270 36119 ft 464 kts 194°
2026-05-08 22:06 36.16059 30.94181 36110 ft 465 kts 194°
2026-05-08 22:06 36.09622 30.93086 36115 ft 465 kts 194°
2026-05-08 22:07 36.03205 30.91998 36115 ft 465 kts 194°
2026-05-08 22:07 35.96790 30.90911 36164 ft 468 kts 194°
2026-05-08 22:07 35.93553 30.90363 36328 ft 467 kts 194°
2026-05-08 22:08 35.90339 30.89821 36566 ft 466 kts 194°
2026-05-08 22:08 35.87133 30.89281 36788 ft 464 kts 194°
2026-05-08 22:08 35.83981 30.88750 36949 ft 464 kts 194°
2026-05-08 22:08 35.80724 30.88200 37067 ft 465 kts 194°
2026-05-08 22:09 35.77519 30.87659 37221 ft 465 kts 194°
2026-05-08 22:09 35.74387 30.87132 37407 ft 464 kts 194°
2026-05-08 22:09 35.71117 30.86582 37583 ft 463 kts 194°
2026-05-08 22:09 35.67933 30.86047 37716 ft 464 kts 194°
2026-05-08 22:10 35.64775 30.85516 37830 ft 464 kts 194°
2026-05-08 22:10 35.61512 30.85018 37974 ft 466 kts 191°
2026-05-08 22:10 35.58296 30.84942 38098 ft 470 kts 185°
2026-05-08 22:11 35.51706 30.85235 38114 ft 475 kts 184°
2026-05-08 22:11 35.45085 30.85555 38124 ft 477 kts 184°
2026-05-08 22:12 35.38473 30.85803 38114 ft 476 kts 185°
2026-05-08 22:12 35.31849 30.86026 38115 ft 474 kts 185°
2026-05-08 22:13 35.25242 30.86247 38126 ft 475 kts 185°
2026-05-08 22:13 35.19246 30.86450 38130 ft 478 kts 185°
2026-05-08 22:14 35.12591 30.86671 38122 ft 479 kts 185°
2026-05-08 22:14 35.05997 30.86882 38123 ft 479 kts 185°
2026-05-08 22:15 34.99322 30.87096 38117 ft 478 kts 185°
2026-05-08 22:15 34.92660 30.87309 38128 ft 479 kts 185°
2026-05-08 22:16 34.85990 30.87522 38126 ft 480 kts 185°
2026-05-08 22:16 34.79322 30.87736 38123 ft 481 kts 185°
2026-05-08 22:17 34.72609 30.87951 38130 ft 482 kts 185°
2026-05-08 22:17 34.65876 30.88166 38127 ft 483 kts 185°
2026-05-08 22:18 34.59150 30.88398 38123 ft 485 kts 185°
2026-05-08 22:18 34.52400 30.88745 38124 ft 486 kts 184°
2026-05-08 22:19 34.45716 30.89108 38128 ft 488 kts 184°
2026-05-08 22:19 34.38885 30.89462 38130 ft 489 kts 184°
2026-05-08 22:20 34.32067 30.89807 38122 ft 489 kts 184°
2026-05-08 22:20 34.25263 30.90151 38122 ft 489 kts 184°
2026-05-08 22:21 34.18449 30.90514 38134 ft 491 kts 184°
2026-05-08 22:21 34.11685 30.90894 38124 ft 492 kts 184°
2026-05-08 22:22 34.04818 30.91330 38125 ft 493 kts 182°
2026-05-08 22:22 33.97974 30.92079 38129 ft 496 kts 180°
2026-05-08 22:23 33.91106 30.92998 38124 ft 497 kts 179°
2026-05-08 22:23 33.84321 30.94635 38149 ft 506 kts 165°
2026-05-08 22:24 33.77655 30.97562 38157 ft 505 kts 163°
2026-05-08 22:24 33.71112 31.00487 38124 ft 500 kts 164°
2026-05-08 22:25 33.64626 31.03312 38145 ft 501 kts 164°
2026-05-08 22:25 33.57981 31.06155 38122 ft 503 kts 165°
2026-05-08 22:26 33.51384 31.08964 38122 ft 504 kts 165°
2026-05-08 22:26 33.44822 31.11758 38113 ft 503 kts 164°
2026-05-08 22:27 33.38323 31.14524 38128 ft 501 kts 165°
2026-05-08 22:27 33.31706 31.17334 38133 ft 501 kts 164°
2026-05-08 22:28 33.25078 31.20144 38131 ft 503 kts 164°
2026-05-08 22:28 33.18467 31.22943 38127 ft 505 kts 164°
2026-05-08 22:29 33.11866 31.25734 38124 ft 506 kts 164°
2026-05-08 22:29 33.05342 31.28490 38112 ft 503 kts 164°
2026-05-08 22:30 32.98891 31.31209 38126 ft 502 kts 164°
2026-05-08 22:30 32.92395 31.33942 38133 ft 502 kts 164°
2026-05-08 22:31 32.85897 31.36671 38128 ft 503 kts 164°
2026-05-08 22:31 32.79399 31.39396 38132 ft 505 kts 164°
2026-05-08 22:32 32.72980 31.42084 38124 ft 506 kts 164°
2026-05-08 22:32 32.66425 31.44827 38116 ft 505 kts 164°
2026-05-08 22:33 32.59849 31.47572 38120 ft 505 kts 164°
2026-05-08 22:33 32.53344 31.50284 38124 ft 506 kts 164°
2026-05-08 22:34 32.46811 31.53003 38123 ft 507 kts 164°
2026-05-08 22:34 32.40279 31.55718 38130 ft 508 kts 164°
2026-05-08 22:35 32.33755 31.58425 38119 ft 508 kts 164°
2026-05-08 22:35 32.27186 31.61148 38126 ft 506 kts 164°
2026-05-08 22:36 32.20687 31.63837 38117 ft 505 kts 164°
2026-05-08 22:36 32.14266 31.66489 38116 ft 504 kts 163°
2026-05-08 22:37 32.07713 31.69191 38122 ft 504 kts 163°
2026-05-08 22:37 32.01149 31.71892 38134 ft 509 kts 163°
2026-05-08 22:38 31.94723 31.74535 38127 ft 509 kts 163°
2026-05-08 22:38 31.88168 31.77228 38119 ft 506 kts 163°
2026-05-08 22:39 31.81593 31.79925 38118 ft 505 kts 163°
2026-05-08 22:39 31.75007 31.82620 38132 ft 508 kts 163°
2026-05-08 22:40 31.68437 31.85304 38125 ft 509 kts 163°
2026-05-08 22:40 31.61973 31.87943 38115 ft 507 kts 163°
2026-05-08 22:41 31.55421 31.90614 38107 ft 504 kts 163°
2026-05-08 22:41 31.48931 31.93255 38119 ft 503 kts 163°
2026-05-08 22:42 31.42520 31.95859 38132 ft 506 kts 163°
2026-05-08 22:42 31.35912 31.98538 38129 ft 510 kts 163°
2026-05-08 22:43 31.29323 32.01208 38128 ft 512 kts 163°
2026-05-08 22:43 31.22718 32.03880 38125 ft 513 kts 163°
2026-05-08 22:44 31.16153 32.06534 38111 ft 507 kts 163°
2026-05-08 22:44 31.09658 32.09154 38126 ft 507 kts 163°
2026-05-08 22:45 31.02960 32.11850 38128 ft 511 kts 163°
2026-05-08 22:45 30.96215 32.14561 38125 ft 514 kts 163°
2026-05-08 22:46 30.89466 32.17272 38108 ft 511 kts 163°
2026-05-08 22:46 30.82774 32.19957 38106 ft 506 kts 163°
2026-05-08 22:47 30.76144 32.22611 38116 ft 508 kts 163°
2026-05-08 22:47 30.69438 32.25291 38116 ft 510 kts 163°
2026-05-08 22:48 30.62722 32.27972 38107 ft 510 kts 162°
2026-05-08 22:48 30.56000 32.30651 38114 ft 510 kts 162°
2026-05-08 22:49 30.49301 32.33318 38107 ft 506 kts 162°
2026-05-08 22:49 30.39410 32.37249 38102 ft 498 kts 162°
2026-05-08 22:50 30.32855 32.39848 38108 ft 499 kts 162°
2026-05-08 22:50 30.26249 32.42463 38118 ft 504 kts 162°
2026-05-08 22:51 30.19622 32.45084 38103 ft 502 kts 162°
2026-05-08 22:51 30.13065 32.47674 38097 ft 500 kts 162°
2026-05-08 22:52 30.06473 32.50273 38105 ft 501 kts 162°
2026-05-08 22:52 29.99856 32.52878 38099 ft 503 kts 162°
2026-05-08 22:53 29.93217 32.55490 38091 ft 504 kts 162°
2026-05-08 22:53 29.86585 32.58094 38074 ft 502 kts 162°
2026-05-08 22:54 29.79993 32.60680 38090 ft 499 kts 162°
2026-05-08 22:54 29.74531 32.62819 38090 ft 499 kts 162°
2026-05-08 22:55 29.66878 32.65813 38086 ft 500 kts 162°
2026-05-08 22:55 29.60638 32.69237 38089 ft 497 kts 143°
2026-05-08 22:56 29.56395 32.73703 38058 ft 492 kts 125°
2026-05-08 22:56 29.52316 32.79977 38067 ft 490 kts 123°
2026-05-08 22:57 29.48307 32.86243 38070 ft 490 kts 123°
2026-05-08 22:57 29.44218 32.92523 38072 ft 491 kts 124°
2026-05-08 22:58 29.40106 32.98765 38064 ft 490 kts 124°
2026-05-08 22:58 29.35987 33.04995 37789 ft 493 kts 124°
2026-05-08 22:59 29.33921 33.08117 37520 ft 490 kts 124°
2026-05-08 22:59 29.31863 33.11225 37258 ft 487 kts 124°
2026-05-08 22:59 29.29820 33.14310 37008 ft 487 kts 124°
2026-05-08 22:59 29.27769 33.17406 36756 ft 488 kts 124°
2026-05-08 23:00 29.25714 33.20506 36498 ft 488 kts 125°
2026-05-08 23:00 29.23664 33.23595 36252 ft 486 kts 125°
2026-05-08 23:00 29.21616 33.26680 36013 ft 486 kts 125°
2026-05-08 23:00 29.19567 33.29764 35751 ft 487 kts 125°
2026-05-08 23:01 29.17521 33.32840 35133 ft 485 kts 125°
2026-05-08 23:01 29.15480 33.35907 34591 ft 484 kts 125°
2026-05-08 23:01 29.13440 33.38970 33949 ft 485 kts 125°
2026-05-08 23:01 29.11391 33.42047 33221 ft 486 kts 125°
2026-05-08 23:02 29.09365 33.45085 32534 ft 486 kts 125°
2026-05-08 23:02 29.07312 33.48160 31850 ft 487 kts 126°
2026-05-08 23:02 29.05259 33.51234 31167 ft 487 kts 126°
2026-05-08 23:02 29.03200 33.54315 30451 ft 487 kts 126°
2026-05-08 23:03 29.01141 33.57393 29645 ft 488 kts 126°
2026-05-08 23:03 28.99080 33.60472 28788 ft 488 kts 126°
2026-05-08 23:03 28.97015 33.63554 27966 ft 487 kts 126°
2026-05-08 23:03 28.94954 33.66628 27110 ft 487 kts 126°
2026-05-08 23:04 28.92889 33.69707 26237 ft 488 kts 126°
2026-05-08 23:04 28.90826 33.72782 25331 ft 489 kts 127°
2026-05-08 23:04 28.88755 33.75866 24451 ft 489 kts 127°
2026-05-08 23:04 28.86695 33.78931 23772 ft 484 kts 127°
2026-05-08 23:05 28.84610 33.81932 22981 ft 481 kts 131°
2026-05-08 23:05 28.82167 33.84487 22275 ft 474 kts 141°
2026-05-08 23:05 28.79577 33.86783 21588 ft 469 kts 142°
2026-05-08 23:05 28.77019 33.89049 20903 ft 463 kts 141°
2026-05-08 23:06 28.74523 33.91339 20233 ft 458 kts 141°
2026-05-08 23:06 28.72075 33.93634 19575 ft 454 kts 140°
2026-05-08 23:06 28.69655 33.95922 18905 ft 450 kts 140°
2026-05-08 23:06 28.67287 33.98155 18228 ft 447 kts 140°
2026-05-08 23:07 28.64897 34.00403 17493 ft 443 kts 140°
2026-05-08 23:07 28.62537 34.02620 16808 ft 438 kts 141°
2026-05-08 23:07 28.60194 34.04819 16117 ft 434 kts 141°
2026-05-08 23:07 28.57880 34.06990 15460 ft 429 kts 141°
2026-05-08 23:08 28.55585 34.09142 14811 ft 425 kts 141°
2026-05-08 23:08 28.53315 34.11270 14155 ft 422 kts 141°
2026-05-08 23:08 28.51060 34.13381 13478 ft 418 kts 141°
2026-05-08 23:08 28.48775 34.15362 13130 ft 405 kts 151°
2026-05-08 23:09 28.46198 34.16443 13030 ft 389 kts 171°
2026-05-08 23:09 28.43536 34.16652 12530 ft 381 kts 186°
2026-05-08 23:09 28.41012 34.16077 12078 ft 362 kts 199°
2026-05-08 23:09 28.38685 34.15181 11695 ft 345 kts 201°
2026-05-08 23:10 28.36483 34.14285 11456 ft 328 kts 201°
2026-05-08 23:10 28.34357 34.13439 10977 ft 321 kts 200°
2026-05-08 23:10 28.32267 34.12630 10602 ft 313 kts 200°
2026-05-08 23:10 28.30254 34.11862 10442 ft 297 kts 200°
2026-05-08 23:11 28.28299 34.11118 10047 ft 292 kts 200°
2026-05-08 23:11 28.26403 34.10397 9811 ft 283 kts 199°
2026-05-08 23:11 28.24561 34.09697 9649 ft 276 kts 199°
2026-05-08 23:11 28.22735 34.09002 9528 ft 286 kts 199°
2026-05-08 23:12 28.20842 34.08282 9358 ft 287 kts 199°
2026-05-08 23:12 28.18923 34.07553 9189 ft 286 kts 199°
2026-05-08 23:12 28.17061 34.06846 9023 ft 279 kts 199°
2026-05-08 23:12 28.15273 34.06168 8897 ft 271 kts 199°
2026-05-08 23:13 28.13495 34.05494 8743 ft 267 kts 199°
2026-05-08 23:13 28.11739 34.04828 8606 ft 265 kts 199°
2026-05-08 23:13 28.09987 34.04164 8464 ft 267 kts 199°
2026-05-08 23:13 28.08245 34.03503 8329 ft 258 kts 200°
2026-05-08 23:14 28.06583 34.02874 8205 ft 246 kts 199°
2026-05-08 23:14 28.05003 34.02276 8060 ft 232 kts 199°
2026-05-08 23:14 28.03514 34.01712 7916 ft 220 kts 199°
2026-05-08 23:14 28.02103 34.01178 7789 ft 208 kts 199°
2026-05-08 23:15 28.00747 34.00664 7687 ft 204 kts 199°
2026-05-08 23:15 27.99406 34.00156 7591 ft 202 kts 199°
2026-05-08 23:15 27.98076 33.99653 7491 ft 201 kts 199°
2026-05-08 23:15 27.96756 33.99154 7384 ft 199 kts 199°
2026-05-08 23:16 27.95452 33.98661 7283 ft 197 kts 199°
2026-05-08 23:16 27.94148 33.98168 7184 ft 198 kts 199°
2026-05-08 23:16 27.92825 33.97709 7083 ft 200 kts 188°
2026-05-08 23:16 27.91598 33.97924 6937 ft 200 kts 150°
2026-05-08 23:17 27.90684 33.99049 6747 ft 200 kts 113°
2026-05-08 23:17 27.90141 34.00498 6516 ft 200 kts 111°
2026-05-08 23:17 27.89614 34.01934 6262 ft 196 kts 111°
2026-05-08 23:17 27.89104 34.03324 6003 ft 187 kts 111°
2026-05-08 23:18 27.88604 34.04684 5788 ft 189 kts 111°
2026-05-08 23:18 27.88096 34.06065 5585 ft 191 kts 111°
2026-05-08 23:18 27.87582 34.07457 5363 ft 193 kts 111°
2026-05-08 23:18 27.87064 34.08859 5135 ft 194 kts 111°
2026-05-08 23:19 27.86543 34.10267 4896 ft 193 kts 111°
2026-05-08 23:19 27.86031 34.11649 4660 ft 189 kts 111°
2026-05-08 23:19 27.85527 34.13006 4424 ft 186 kts 110°
2026-05-08 23:19 27.85025 34.14360 4204 ft 187 kts 110°
2026-05-08 23:20 27.84527 34.15702 3960 ft 182 kts 110°
2026-05-08 23:20 27.84045 34.16997 3742 ft 176 kts 110°
2026-05-08 23:20 27.83573 34.18265 3544 ft 176 kts 109°
2026-05-08 23:20 27.83096 34.19550 3353 ft 177 kts 109°
2026-05-08 23:21 27.82619 34.20831 3132 ft 177 kts 109°
2026-05-08 23:21 27.82409 34.22161 2869 ft 170 kts 70°
2026-05-08 23:21 27.83056 34.23182 2857 ft 163 kts 42°
2026-05-08 23:21 27.83819 34.24157 2699 ft 165 kts 47°
2026-05-08 23:22 27.84554 34.25148 2627 ft 166 kts 47°
2026-05-08 23:22 27.85311 34.26082 2552 ft 156 kts 43°
2026-05-08 23:22 27.86087 34.26943 2459 ft 157 kts 42°
2026-05-08 23:22 27.86879 34.27792 2378 ft 155 kts 42°
2026-05-08 23:23 27.87656 34.28612 2381 ft 153 kts 41°
2026-05-08 23:23 27.88425 34.29420 2331 ft 149 kts 41°
2026-05-08 23:23 27.89173 34.30207 2138 ft 147 kts 41°
2026-05-08 23:23 27.89926 34.30996 1958 ft 148 kts 40°
2026-05-08 23:24 27.90675 34.31782 1758 ft 146 kts 40°
2026-05-08 23:24 27.91414 34.32559 1565 ft 143 kts 40°
2026-05-08 23:24 27.92152 34.33333 1399 ft 146 kts 40°
2026-05-08 23:24 27.92896 34.34113 1188 ft 145 kts 39°
2026-05-08 23:25 27.93635 34.34889 996 ft 146 kts 40°
2026-05-08 23:25 27.94367 34.35658 827 ft 141 kts 39°
2026-05-08 23:25 27.95075 34.36400 635 ft 141 kts 40°
2026-05-08 23:25 27.95797 34.37157 454 ft 142 kts 41°
2026-05-08 23:26 27.96507 34.37903 278 ft 137 kts 41°
2026-05-08 23:26 27.97179 34.38607 191 ft 116 kts 42°
2026-05-08 23:26 27.97776 34.39222 139 ft 116 kts 41°
2026-05-08 23:26 27.98315 34.39773 129 ft 71 kts 44°
2026-05-08 23:27 27.98507 34.39948 128 ft 24 kts
2026-05-08 23:27 27.98605 34.39871 129 ft 18 kts 315°
2026-05-08 23:27 27.98695 34.39788 128 ft 8 kts 359°
2026-05-08 23:27 27.98741 34.39815 129 ft 8 kts 20°
2026-05-08 23:28 27.98768 34.39805 124 ft 0 kts 314°